When you browse on this site, cookies collect data to enhance your experience and personalize the content and advertising you see.
Visit our Privacy Policy to learn more. By continuing to use the site, you agree to this use of cookies and data.
  • In Hungary
  • List of Countries
  • For 7 days
  • Water Temperature
  • Satellite Maps
  • Weather Map
  • News
  • Weather Widgets
  • user-avatar
    Login

    Hourly Weather Sandy City

    Today, 27 June, Thursday

    Time Temperature Precipitation Wind Pressure Humidity
    00:00 +20°C° 0 mm 4 mps 645 mmHg 23%
    01:00 +20°C° 0 mm 4 mps 645 mmHg 24%
    02:00 +19°C° 0 mm 4 mps 646 mmHg 25%
    03:00 +19°C° 0 mm 4 mps 646 mmHg 26%
    04:00 +19°C° 0 mm 4 mps 646 mmHg 27%
    05:00 +19°C° 0 mm 4 mps 646 mmHg 27%
    06:00 +20°C° 0 mm 4 mps 647 mmHg 28%
    07:00 +22°C° 0 mm 4 mps 647 mmHg 28%
    08:00 +25°C° 0 mm 5 mps 648 mmHg 28%
    09:00 +26°C° 0 mm 5 mps 648 mmHg 26%
    10:00 +28°C° 0 mm 6 mps 648 mmHg 23%
    11:00 +29°C° 0 mm 6 mps 648 mmHg 20%
    12:00 +30°C° 0 mm 6 mps 648 mmHg 19%
    13:00 +32°C° 0 mm 6 mps 648 mmHg 18%
    14:00 +32°C° 0 mm 6 mps 648 mmHg 17%
    15:00 +32°C° 0 mm 7 mps 648 mmHg 17%
    16:00 +32°C° 0 mm 7 mps 647 mmHg 17%
    17:00 +32°C° 0 mm 7 mps 647 mmHg 17%
    18:00 +29°C° 0 mm 6 mps 647 mmHg 18%
    19:00 +27°C° 0 mm 4 mps 646 mmHg 19%
    20:00 +24°C° 0 mm 3 mps 646 mmHg 20%
    21:00 +24°C° 0 mm 3 mps 646 mmHg 19%
    22:00 +22°C° 0 mm 3 mps 646 mmHg 19%
    23:00 +21°C° 0 mm 3 mps 647 mmHg 18%

    Tomorrow, 28 June, Friday

    Time Temperature Precipitation Wind Pressure Humidity
    00:00 +20°C° 0 mm 3 mps 647 mmHg 18%
    01:00 +20°C° 0 mm 3 mps 646 mmHg 19%
    02:00 +19°C° 0 mm 3 mps 646 mmHg 20%
    03:00 +19°C° 0 mm 3 mps 646 mmHg 20%
    04:00 +19°C° 0 mm 3 mps 647 mmHg 21%
    05:00 +19°C° 0 mm 3 mps 647 mmHg 22%
    06:00 +21°C° 0 mm 3 mps 647 mmHg 22%
    07:00 +24°C° 0 mm 3 mps 648 mmHg 23%
    08:00 +26°C° 0 mm 3 mps 649 mmHg 24%
    09:00 +27°C° 0 mm 4 mps 649 mmHg 21%
    10:00 +29°C° 0 mm 4 mps 649 mmHg 19%
    11:00 +30°C° 0 mm 5 mps 649 mmHg 16%
    12:00 +32°C° 0 mm 5 mps 649 mmHg 15%
    13:00 +33°C° 0 mm 5 mps 649 mmHg 14%
    14:00 +34°C° 0 mm 6 mps 649 mmHg 14%
    15:00 +34°C° 0 mm 6 mps 648 mmHg 14%
    16:00 +34°C° 0 mm 6 mps 648 mmHg 15%
    17:00 +34°C° 0 mm 7 mps 647 mmHg 15%
    18:00 +30°C° 0 mm 6 mps 647 mmHg 17%
    19:00 +28°C° 0 mm 4 mps 647 mmHg 19%
    20:00 +25°C° 0 mm 3 mps 646 mmHg 20%
    21:00 +25°C° 0 mm 3 mps 647 mmHg 20%
    22:00 +24°C° 0 mm 3 mps 647 mmHg 19%
    23:00 +22°C° 0 mm 3 mps 648 mmHg 19%

    Day after tomorrow, 29 June, Saturday

    Time Temperature Precipitation Wind Pressure Humidity
    00:00 +21°C° 0 mm 2 mps 647 mmHg 24%
    01:00 +19°C° 0 mm 2 mps 647 mmHg 28%
    02:00 +19°C° 0 mm 1 mps 647 mmHg 33%
    03:00 +18°C° 0 mm 1 mps 647 mmHg 35%
    04:00 +16°C° 0 mm 1 mps 647 mmHg 37%
    05:00 +16°C° 0 mm 1 mps 647 mmHg 39%
    06:00 +19°C° 0 mm 1 mps 648 mmHg 35%
    07:00 +22°C° 0 mm 1 mps 649 mmHg 31%
    08:00 +24°C° 0 mm 1 mps 650 mmHg 27%
    09:00 +26°C° 0 mm 2 mps 650 mmHg 25%
    10:00 +28°C° 0 mm 2 mps 651 mmHg 22%
    11:00 +30°C° 0 mm 3 mps 651 mmHg 19%
    12:00 +32°C° 0 mm 4 mps 651 mmHg 20%
    13:00 +32°C° 0 mm 5 mps 650 mmHg 22%
    14:00 +33°C° 0 mm 6 mps 650 mmHg 23%
    15:00 +33°C° 0 mm 5 mps 650 mmHg 24%
    16:00 +32°C° 0 mm 4 mps 650 mmHg 25%
    17:00 +31°C° 0 mm 3 mps 649 mmHg 25%
    18:00 +29°C° 0 mm 2 mps 649 mmHg 29%
    19:00 +27°C° 0 mm 2 mps 648 mmHg 33%
    20:00 +25°C° 0 mm 1 mps 648 mmHg 37%
    21:00 +25°C° 0 mm 1 mps 648 mmHg 38%
    22:00 +24°C° 0 mm 2 mps 648 mmHg 38%
    23:00 +24°C° 0 mm 2 mps 649 mmHg 38%

    30 June, Sunday

    Time Temperature Precipitation Wind Pressure Humidity
    00:00 +24°C° 0 mm 2 mps 649 mmHg 38%
    01:00 +24°C° 0 mm 2 mps 649 mmHg 38%
    02:00 +24°C° 0 mm 2 mps 649 mmHg 38%
    03:00 +22°C° 0 mm 3 mps 649 mmHg 39%
    04:00 +22°C° 0 mm 3 mps 649 mmHg 40%
    05:00 +22°C° 0 mm 3 mps 649 mmHg 40%
    06:00 +24°C° 0 mm 3 mps 649 mmHg 39%
    07:00 +26°C° 0 mm 3 mps 650 mmHg 38%
    08:00 +27°C° 0 mm 3 mps 650 mmHg 38%
    09:00 +28°C° 0 mm 3 mps 650 mmHg 36%
    10:00 +29°C° 0 mm 4 mps 650 mmHg 35%
    11:00 +30°C° 0 mm 4 mps 650 mmHg 33%
    12:00 +30°C° 0 mm 4 mps 650 mmHg 35%
    13:00 +30°C° 0 mm 4 mps 649 mmHg 36%
    14:00 +30°C° 0 mm 4 mps 649 mmHg 37%
    15:00 +29°C° 0 mm 4 mps 649 mmHg 38%
    16:00 +29°C° 0 mm 4 mps 648 mmHg 38%
    17:00 +29°C° 0 mm 4 mps 648 mmHg 39%
    18:00 +28°C° 0 mm 4 mps 648 mmHg 43%
    19:00 +27°C° 0 mm 4 mps 648 mmHg 46%
    20:00 +26°C° 0 mm 4 mps 647 mmHg 49%
    21:00 +25°C° 0 mm 4 mps 647 mmHg 52%
    22:00 +23°C° 0 mm 4 mps 647 mmHg 55%
    23:00 +22°C° 0 mm 3 mps 647 mmHg 58%

    1 July, Monday

    Time Temperature Precipitation Wind Pressure Humidity
    00:00 +21°C° 0 mm 3 mps 647 mmHg 57%
    01:00 +21°C° 0 mm 3 mps 647 mmHg 56%
    02:00 +21°C° 0 mm 3 mps 647 mmHg 55%
    03:00 +21°C° 0 mm 3 mps 647 mmHg 54%
    04:00 +21°C° 0 mm 3 mps 647 mmHg 54%
    05:00 +21°C° 0 mm 3 mps 647 mmHg 53%
    06:00 +24°C° 0 mm 3 mps 647 mmHg 49%
    07:00 +25°C° 0 mm 3 mps 648 mmHg 44%
    08:00 +27°C° 0 mm 3 mps 648 mmHg 40%
    09:00 +29°C° 0 mm 4 mps 648 mmHg 34%
    10:00 +30°C° 0 mm 4 mps 648 mmHg 28%
    11:00 +33°C° 0 mm 5 mps 649 mmHg 22%
    12:00 +34°C° 0 mm 5 mps 648 mmHg 21%
    13:00 +34°C° 0 mm 5 mps 648 mmHg 20%
    14:00 +35°C° 0 mm 5 mps 648 mmHg 19%
    15:00 +35°C° 0 mm 5 mps 647 mmHg 18%
    16:00 +35°C° 0 mm 4 mps 647 mmHg 18%
    17:00 +35°C° 0 mm 4 mps 646 mmHg 18%
    18:00 +31°C° 0 mm 3 mps 646 mmHg 21%
    19:00 +28°C° 0 mm 2 mps 645 mmHg 25%
    20:00 +25°C° 0 mm 1 mps 644 mmHg 28%
    21:00 +25°C° 0 mm 1 mps 644 mmHg 29%
    22:00 +24°C° 0 mm 2 mps 645 mmHg 30%
    23:00 +23°C° 0 mm 2 mps 645 mmHg 30%

    2 July, Tuesday

    Time Temperature Precipitation Wind Pressure Humidity
    00:00 +21°C° 0 mm 2 mps 645 mmHg 35%
    01:00 +20°C° 0 mm 2 mps 645 mmHg 40%
    02:00 +20°C° 0 mm 1 mps 645 mmHg 44%
    03:00 +20°C° 0 mm 1 mps 645 mmHg 46%
    04:00 +19°C° 0 mm 1 mps 645 mmHg 49%
    05:00 +18°C° 0 mm 1 mps 645 mmHg 51%
    06:00 +21°C° 0 mm 1 mps 646 mmHg 46%
    07:00 +23°C° 0 mm 1 mps 647 mmHg 42%
    08:00 +25°C° 0 mm 1 mps 647 mmHg 37%
    09:00 +27°C° 0 mm 1 mps 648 mmHg 34%
    10:00 +28°C° 0 mm 1 mps 648 mmHg 31%
    11:00 +30°C° 0 mm 2 mps 648 mmHg 28%
    12:00 +30°C° 0 mm 2 mps 648 mmHg 26%
    13:00 +31°C° 0 mm 2 mps 648 mmHg 24%
    14:00 +32°C° 0 mm 2 mps 647 mmHg 22%
    15:00 +32°C° 0 mm 2 mps 647 mmHg 23%
    16:00 +31°C° 0 mm 2 mps 646 mmHg 24%
    17:00 +31°C° 0 mm 2 mps 646 mmHg 25%
    18:00 +29°C° 0 mm 2 mps 645 mmHg 29%
    19:00 +27°C° 0 mm 2 mps 644 mmHg 33%
    20:00 +24°C° 0 mm 1 mps 644 mmHg 37%
    21:00 +24°C° 0 mm 1 mps 644 mmHg 37%
    22:00 +23°C° 0 mm 1 mps 644 mmHg 37%
    23:00 +23°C° 0 mm 1 mps 644 mmHg 37%
    Show more